Location: Albany
(42.6526°N, 73.7562°W)
Time: 13:56:38
(UTC+00:00)

CZ-4 R/B - Pass Details

Date: 19 November 2019
Orbit: 530 x 601 km, 97.7° (Epoch: 15 December)

Event Time Altitude Azimuth Distance (km) Brightness Sun altitude
Rises 23:18:15 0° 170° (S) 2,810 4.9 -19.9°
Reaches altitude 10° 23:20:26 10° 172° (S) 1,905 4.1 -20.3°
Maximum altitude 23:24:33 75° 257° (WSW) 602 1.5 -21.1°
Drops below altitude 10° 23:28:38 10° 344° (NNW) 1,880 4.1 -21.8°
Sets 23:30:46 0° 346° (NNW) 2,770 5.0 -22.2°
